Location: Unspecified
(41.1637°N, 24.2901°E)
Time: 21:44:15
(UTC+02:00)

ISS - Pass Details

Date: 26 May 2023
Orbit: 411 x 419 km, 51.6° (Epoch: 06 June)

Event Time Altitude Azimuth Distance (km) Brightness Sun altitude
Rises 21:13:15 0° 310° (NW) 2,356 2.0 -14.1°
Reaches altitude 10° 21:15:28 10° 319° (NW) 1,493 0.5 -14.4°
Maximum altitude 21:18:34 34° 27° (NNE) 708 -2.5 -14.8°
Enters shadow 21:20:29 19° 82° (E) 1,075 -2.0 -15.1°
